Airfield :
LOGIN :

Register | Disclaimer

   EN    FR    IT 

 










Legend :    VFR   Marginal VFR   IFR   Intensive IFR   Very Intensive IFR
Visi :
Ceiling :
>= 8 km
>= 3000ft
5 to 8 km
1000 to 3000 ft
1500m to 5 km
500 to 1000 ft
800 to 1500m
200 to 500 ft
< 800m
< 200 ft
Symbols :   Thunderstorms  Fog  Heavy snow  Heavy precipitations  Wind > 20 kt
SIGMETs :     Misc.  Thunderstorms  Icing  Turbulence  Mountain Waves  Volcanic Ashes






- Airport Elevation : 461 ft
- IATA code : WIE


ETOU - Wiesbaden Army

CURRENT METAR :
  • 180428Z AUTO 00000KT 9999 -RA BKN036 07/01 A3013 RMK AO2 RAB28 SLP209 $

EXPIRED METARs :
  • 180356Z AUTO 00000KT 9999 OVC037 07/00 A3013 RMK AO2 SLP209 T00730000
  • 180256Z AUTO 00000KT 9999 BKN041 07/01 A3013 RMK AO2 SLP209 T00730005 56008 $
  • 180156Z AUTO 01003KT 9999 OVC043 07/00 A3014 RMK AO2 SLP212 T00740001 $

TAF AMD TAF ETOU
Valid from the 17 at 08:00 until the 18 at 08:00 UTC


170800Z 1708/1808 35003KT 9999 BKN070 QNH3027INS
BECMG 1713/1714 03006KT 9999 BKN045 QNH3022INS
BECMG 1806/1807 VRB03KT 9999 BKN020 QNH3018INS TX12/1715Z TN00/1802Z LAST NO AMDS AFT 1710 NEXT 1809



MET'MAP, your aeronautical weather chart ! - Copyright ORBIFLY December 2007 - Disclaimer

ORBIFLY MET'MAP TEAM :

Programming & Development : Alexandra Zaïnal
Concept & original design : Baudouin d'Aumeries
Assistance for programming : Marc-Olivier Méhu
Technical & hardware support : Manuel Goepfert

Contact : metmap@orbifly.com




SOURCES & CREDITS :

   NOAA